Date,TemperatureHighF,TemperatureAvgF,TemperatureLowF,DewpointHighF,DewpointAvgF,DewpointLowF,HumidityHigh,HumidityAvg,HumidityLow,PressureMaxIn,PressureMinIn,WindSpeedMaxMPH,WindSpeedAvgMPH,GustSpeedMaxMPH,PrecipitationSumIn
2013-1-1,36.4,32.1,29.8,36.2,30.7,21.6,99,95,63,30.16,29.96,20,3,23,0.20
2013-1-2,30.0,25.2,19.6,29.8,24.2,18.3,99,96,90,30.25,30.02,7,1,8,0.00
2013-1-3,31.2,21.9,16.7,22.9,19.4,15.4,97,90,71,30.33,30.21,11,1,11,0.00
2013-1-4,25.9,23.2,20.2,21.9,19.7,17.2,89,86,82,30.41,30.32,22,4,22,0.00
2013-1-5,38.4,29.6,18.8,27.3,22.3,17.2,95,76,52,30.49,30.25,14,3,16,0.02
2013-1-6,35.0,32.7,28.9,29.3,27.5,23.8,91,81,73,30.27,30.08,17,4,20,0.00
2013-1-7,38.8,30.1,23.4,25.9,23.1,19.8,90,76,57,30.49,30.24,14,3,16,0.00
2013-1-8,47.4,36.9,26.3,27.3,24.0,18.8,86,62,34,30.46,30.35,14,3,15,0.01
2013-1-9,51.6,44.7,36.3,45.6,40.5,26.2,100,86,60,30.49,30.35,16,3,17,0.09
2013-1-10,47.6,41.2,33.9,39.7,36.0,31.4,100,83,59,30.55,30.34,20,4,21,0.01
2013-1-11,56.6,48.0,39.6,53.5,45.0,33.9,100,90,68,30.34,30.07,24,7,24,0.07
2013-1-12,66.8,60.0,54.2,59.3,55.9,52.7,98,87,65,30.12,29.96,18,4,21,0.04
2013-1-13,65.3,59.7,55.2,55.1,52.9,49.0,96,79,64,30.02,29.90,16,4,18,0.18
2013-1-14,56.6,41.0,32.0,54.7,40.5,31.8,99,98,93,30.28,29.96,18,3,18,0.65
2013-1-15,39.9,36.3,31.7,39.9,36.1,31.5,100,100,98,30.28,30.01,20,5,20,1.05
2013-1-16,52.0,39.4,34.4,48.1,39.2,34.2,100,99,80,30.06,29.91,19,3,19,0.62
2013-1-17,35.7,30.2,26.0,35.7,28.9,25.2,100,95,80,30.28,30.02,11,2,11,0.00
2013-1-18,33.2,26.1,20.4,25.3,20.5,13.3,97,80,47,30.53,30.28,15,2,17,0.01
2013-1-19,46.1,39.0,24.0,22.8,18.6,12.2,70,45,31,30.46,30.06,21,6,22,0.03
2013-1-20,43.5,36.8,27.8,30.6,22.6,9.4,76,57,44,30.10,30.02,24,5,29,0.00
2013-1-21,34.8,26.6,16.9,16.1,10.7,3.5,71,51,33,30.09,29.93,29,5,31,0.00
2013-1-22,16.8,11.3,5.7,4.7,-1.2,-5.1,71,57,41,30.34,30.05,20,4,26,0.00
2013-1-23,27.0,15.3,6.6,17.9,4.8,-4.8,75,63,36,30.42,30.12,20,4,22,0.00
2013-1-24,25.5,15.7,6.6,17.3,9.0,1.9,89,74,63,30.56,30.10,23,4,24,0.00
2013-1-25,29.0,20.3,10.6,27.9,17.6,4.5,97,89,72,30.44,30.12,21,8,21,0.00
2013-1-26,26.5,22.3,19.8,25.8,20.8,17.2,97,94,90,30.48,30.18,20,4,23,0.00
2013-1-27,32.8,25.4,16.7,25.4,20.2,14.8,93,81,67,30.57,30.43,19,6,19,0.00
2013-1-28,55.7,44.7,29.5,47.3,40.7,25.3,99,86,71,30.43,30.17,25,7,25,0.30
2013-1-29,66.0,55.7,47.7,53.4,49.2,46.3,98,80,60,30.18,29.89,18,5,18,0.00
2013-1-30,63.7,54.3,41.3,56.3,51.2,38.9,98,90,74,29.89,29.31,36,8,37,1.94
2013-1-31,41.3,26.0,22.8,39.3,21.7,17.3,96,84,75,29.94,29.31,37,7,37,0.04
2013-2-1,25.7,13.3,6.9,24.6,8.3,2.8,96,81,61,30.41,29.85,24,4,25,0.00
2013-2-2,27.0,19.0,7.7,24.7,14.4,1.4,95,83,35,30.40,30.08,18,3,18,0.00
2013-2-3,25.7,23.0,18.5,24.0,21.0,13.2,96,92,80,30.11,29.90,26,6,26,0.00
2013-2-4,40.0,27.6,15.9,31.0,20.2,13.1,91,75,55,30.18,29.97,26,5,29,0.04
2013-2-5,39.9,36.8,33.5,34.1,30.9,25.3,93,79,64,29.97,29.89,20,6,22,0.00
2013-2-6,42.9,35.0,27.5,33.4,27.9,24.3,92,76,49,30.28,29.95,17,2,18,0.00
2013-2-7,38.4,33.9,29.8,33.3,29.8,24.8,96,85,68,30.28,30.03,23,9,23,0.00
2013-2-8,39.7,31.8,25.7,39.0,30.3,23.2,99,94,85,30.20,29.90,28,6,28,0.03
2013-2-9,38.6,27.7,20.1,23.3,17.5,12.9,90,68,35,30.40,30.20,19,3,19,0.00
2013-2-10,48.4,36.7,28.3,36.5,21.2,14.4,94,55,32,30.40,30.06,26,9,26,0.07
2013-2-11,54.7,47.4,37.6,49.2,37.1,16.5,94,71,31,30.08,29.87,32,8,35,0.06
2013-2-12,44.6,36.0,30.4,26.1,23.4,19.6,77,61,38,30.10,29.92,27,3,27,0.00
2013-2-13,38.5,34.0,28.3,37.7,28.8,21.6,98,83,55,29.95,29.58,22,3,22,0.23
2013-2-14,43.3,33.1,25.0,30.6,27.0,23.3,98,79,53,30.07,29.89,14,3,14,0.01
2013-2-15,47.8,34.6,26.2,35.8,30.5,25.2,97,86,59,30.06,29.95,20,3,20,0.00
2013-2-16,26.2,21.8,15.8,25.5,19.3,13.8,97,90,67,30.02,29.94,15,2,15,0.00
2013-2-17,19.2,14.0,8.3,13.8,7.2,3.5,92,75,59,30.33,30.00,20,4,20,0.00
2013-2-18,47.9,31.0,10.0,31.8,18.3,3.0,81,60,45,30.44,30.08,20,4,20,0.09
2013-2-19,39.9,35.0,26.2,37.0,26.5,13.8,96,73,47,30.08,29.79,35,7,35,0.14
2013-2-20,28.2,22.6,17.9,16.1,13.2,11.3,78,67,55,30.25,29.98,25,5,27,0.00
2013-2-21,36.5,24.1,11.7,19.2,14.6,9.6,91,69,45,30.34,30.22,19,3,20,0.00
2013-2-22,37.7,32.2,28.4,37.0,30.1,16.2,99,93,46,30.29,30.07,21,7,24,0.03
2013-2-23,33.2,33.1,33.0,33.0,32.9,32.8,99,99,99,30.08,30.06,15,8,16,0.01
2013-2-24,41.1,38.3,30.8,28.3,24.6,20.5,87,58,45,30.03,29.95,17,5,21,0.00
2013-2-25,40.7,32.9,19.4,27.3,24.1,17.5,92,71,54,30.18,30.06,27,7,27,0.00
2013-2-26,37.2,32.3,27.8,37.0,29.2,20.4,99,89,70,30.08,29.58,25,10,35,0.05
2013-2-27,37.7,33.9,29.2,37.5,32.1,28.1,99,93,82,29.77,29.63,24,5,24,0.12
2013-2-28,29.1,26.6,25.4,28.2,25.0,22.3,97,94,87,29.91,29.70,21,5,21,0.00
2013-3-1,29.7,27.3,24.9,27.5,25.6,22.5,97,93,85,29.97,29.88,12,3,13,0.00
2013-3-2,24.9,21.7,18.8,22.9,19.3,16.7,95,90,79,30.02,29.92,13,3,14,0.00
2013-3-3,22.9,19.0,16.9,19.6,16.7,14.6,94,91,77,30.09,30.00,14,3,16,0.00
2013-3-4,36.9,28.5,17.5,22.7,14.8,10.6,93,58,34,30.23,30.08,16,2,16,0.02
2013-3-5,37.7,33.5,30.3,33.9,31.0,19.9,99,91,65,30.13,29.61,24,5,24,0.39
2013-3-6,30.2,25.3,22.6,29.7,24.2,20.9,98,95,92,30.20,29.66,12,2,15,0.00
2013-3-7,27.7,26.1,24.9,27.0,25.4,24.2,97,97,96,30.35,30.18,8,1,8,0.00
2013-3-8,38.4,29.7,25.3,28.0,24.9,22.8,97,83,61,30.43,30.31,14,2,15,0.16
2013-3-9,53.8,38.4,20.1,31.5,26.1,18.8,96,65,39,30.42,30.26,17,4,17,0.03
2013-3-10,60.7,48.8,40.0,37.0,31.8,28.0,63,52,37,30.26,30.07,24,9,27,0.00
2013-3-11,52.7,48.9,45.3,47.0,40.7,32.6,96,74,52,30.08,29.76,33,9,33,0.22
2013-3-12,48.9,36.5,27.7,47.2,34.1,25.9,99,91,75,30.03,29.75,18,3,18,0.30
2013-3-13,33.0,27.2,20.3,29.3,24.1,16.8,95,88,73,30.23,30.01,23,4,24,0.00
2013-3-14,35.7,25.6,17.8,18.8,15.7,12.0,93,68,44,30.35,30.22,20,4,20,0.02
2013-3-15,53.1,39.6,26.3,34.8,26.5,14.4,79,60,46,30.26,29.91,23,4,23,0.01
2013-3-16,66.5,54.0,40.4,51.8,44.6,33.1,93,71,49,29.92,29.62,28,6,28,0.22
2013-3-17,47.1,40.2,34.9,44.6,38.8,34.2,99,95,87,30.04,29.84,28,3,28,0.21
2013-3-18,35.5,32.3,29.9,35.5,31.8,29.3,100,98,96,30.05,29.86,33,12,33,0.16
2013-3-19,45.7,38.5,31.8,45.7,22.7,0.0,100,61,19,30.06,29.85,38,7,41,0.06
2013-3-20,42.1,32.4,24.5,27.1,14.0,6.6,95,49,27,30.07,29.83,28,5,28,0.00
2013-3-21,25.2,18.3,13.4,23.0,14.3,9.5,93,84,62,30.06,29.82,17,3,17,0.00
2013-3-22,38.1,23.7,11.3,19.8,12.8,6.4,87,65,42,30.16,30.05,14,2,15,0.05
2013-3-23,45.1,33.9,23.2,25.8,19.6,14.0,82,57,37,30.11,29.92,13,1,13,0.00
2013-3-24,34.4,31.3,29.2,29.9,25.7,19.2,98,82,55,29.95,29.47,28,8,28,0.00
2013-3-25,30.9,27.3,25.4,30.6,25.7,23.4,99,94,84,29.85,29.50,27,6,27,0.00
2013-3-26,31.7,28.4,25.9,28.3,26.2,24.9,96,91,83,30.20,29.94,19,4,19,0.03
2013-3-27,33.0,27.4,24.2,28.6,24.9,21.9,96,91,75,30.30,30.19,18,3,18,0.04
2013-3-28,39.9,31.7,25.2,26.6,24.1,21.8,96,75,51,30.34,30.26,16,3,16,0.20
2013-3-29,46.9,35.6,21.8,28.2,24.4,19.8,93,66,42,30.36,30.23,18,2,18,0.00
2013-3-30,55.0,41.3,27.3,34.0,28.5,25.5,95,64,36,30.27,30.05,14,1,14,0.00
2013-3-31,49.2,46.2,41.7,46.7,42.0,32.4,98,86,59,30.05,29.77,21,5,21,0.26
2013-4-1,48.4,40.2,31.0,42.2,36.8,25.9,98,88,66,30.02,29.82,22,4,22,0.03
2013-4-2,41.2,30.9,25.9,26.0,18.1,12.2,80,61,31,30.22,30.01,15,2,16,0.00
2013-4-3,43.2,32.6,19.6,20.4,13.8,8.5,83,48,27,30.37,30.22,15,2,16,0.00
2013-4-4,37.5,31.6,25.9,32.3,20.8,12.4,98,67,42,30.37,30.04,25,6,25,0.05
2013-4-5,52.9,41.2,32.7,37.0,31.9,27.4,99,74,40,30.10,29.99,17,2,17,0.30
2013-4-6,61.7,47.0,28.0,34.5,29.1,17.6,91,53,27,30.24,30.10,19,4,20,0.00
2013-4-7,65.8,54.7,42.7,41.9,37.0,30.4,69,52,38,30.12,29.99,23,6,26,0.00
2013-4-8,70.7,60.9,49.9,49.0,44.3,38.3,74,55,39,30.07,29.94,24,4,24,0.00
2013-4-9,77.3,65.2,55.5,53.7,47.9,41.3,73,55,35,30.11,29.97,18,3,18,0.00
2013-4-10,80.2,66.6,55.8,57.2,52.0,43.1,80,60,38,30.02,29.89,20,4,21,0.00
2013-4-11,77.0,71.4,62.5,57.7,51.9,43.3,84,51,32,29.81,29.59,25,6,25,0.04
2013-4-12,62.5,55.2,45.5,58.9,48.2,33.3,97,79,49,29.83,29.49,25,5,25,0.67
2013-4-13,59.4,50.0,40.8,38.4,33.0,27.1,79,54,33,30.01,29.82,24,5,29,0.00
2013-4-14,69.8,59.6,37.5,47.1,36.0,28.6,81,43,27,30.09,29.94,19,4,23,0.03
2013-4-15,52.8,49.6,46.6,51.2,48.4,46.2,100,96,82,30.17,29.96,25,7,25,0.47
2013-4-16,76.1,62.0,51.1,58.6,54.3,50.4,99,78,45,30.25,30.08,18,5,18,0.00
2013-4-17,69.1,60.6,55.5,59.9,56.0,53.2,98,86,61,30.20,30.05,17,3,17,0.39
2013-4-18,72.4,63.8,56.8,60.4,55.3,52.1,91,74,56,30.06,29.82,25,8,25,0.00
2013-4-19,66.0,55.3,36.5,60.5,50.8,34.6,97,85,75,29.87,29.55,30,8,30,0.53
2013-4-20,49.7,39.6,31.4,34.7,27.9,19.9,95,66,34,30.35,29.87,18,4,20,0.02
2013-4-21,54.9,42.1,26.8,33.4,28.2,23.3,90,60,37,30.51,30.35,21,4,23,0.00
2013-4-22,56.9,45.3,34.3,36.9,30.3,22.1,84,58,32,30.43,30.25,20,6,22,0.00
2013-4-23,67.5,53.0,37.1,44.7,36.3,27.1,81,56,31,30.26,30.01,18,5,19,0.00
2013-4-24,71.0,56.0,37.5,54.6,46.7,36.5,97,73,46,30.11,29.85,35,6,36,0.08
2013-4-25,56.2,42.7,30.6,36.7,29.2,19.3,97,64,25,30.37,30.11,16,2,17,0.00
2013-4-26,61.6,48.1,31.4,36.4,30.6,25.2,92,54,26,30.45,30.31,11,1,11,0.00
2013-4-27,60.7,51.4,43.7,47.4,39.9,29.2,92,66,46,30.36,30.17,18,4,18,0.00
2013-4-28,54.2,50.6,47.2,49.8,47.7,45.9,97,90,83,30.17,29.96,25,9,25,0.30
2013-4-29,60.2,52.9,47.5,53.9,50.0,46.7,100,90,76,30.02,29.95,13,3,18,0.02
2013-4-30,70.1,58.5,45.5,56.9,51.8,45.0,100,81,54,30.13,29.99,13,4,17,0.01
2013-5-1,63.9,57.0,51.3,53.5,49.6,43.0,93,77,60,30.26,30.12,24,7,24,0.00
2013-5-2,65.3,55.8,47.7,51.5,47.4,40.6,88,74,58,30.28,30.18,22,8,22,0.00
2013-5-3,61.9,52.5,43.9,46.7,42.5,36.8,92,70,42,30.20,30.11,29,8,29,0.00
2013-5-4,60.5,50.9,41.3,44.8,39.6,34.9,84,67,42,30.12,30.01,28,9,28,0.00
2013-5-5,57.8,49.5,44.5,46.4,38.8,20.5,94,70,33,30.06,29.91,32,9,35,0.01
2013-5-6,51.9,49.9,47.9,51.3,49.1,46.2,99,97,93,29.93,29.86,26,5,27,1.41
2013-5-7,54.1,50.1,46.5,51.2,49.1,45.6,100,96,83,29.95,29.86,10,1,10,1.00
2013-5-8,58.1,50.2,46.6,52.7,48.9,46.6,100,95,80,30.02,29.87,16,1,16,0.88
2013-5-9,70.0,59.2,51.2,55.8,52.3,50.2,100,80,52,30.07,29.97,14,2,15,0.00
2013-5-10,73.0,62.1,52.0,57.9,54.6,49.8,98,78,50,30.04,29.86,20,2,22,0.05
2013-5-11,64.8,58.0,50.3,58.6,54.2,48.0,97,87,73,29.86,29.76,18,4,18,0.30
2013-5-12,51.4,45.3,38.8,48.0,35.5,29.1,96,70,45,30.09,29.82,19,3,19,0.04
2013-5-13,50.2,42.0,34.2,32.6,30.1,26.1,88,64,44,30.20,30.07,17,2,17,0.00
2013-5-14,68.7,50.9,30.2,49.8,35.9,27.4,96,62,33,30.25,29.98,19,3,20,0.00
2013-5-15,79.2,68.6,58.9,58.5,53.2,48.8,79,60,39,30.02,29.85,23,6,25,0.00
2013-5-16,72.9,64.2,56.3,58.9,53.7,49.0,97,70,54,29.98,29.86,20,4,20,0.21
2013-5-17,75.6,63.0,53.8,61.5,56.6,53.1,99,82,48,30.07,29.97,18,2,19,0.32
2013-5-18,69.0,62.2,58.2,62.8,59.8,58.0,100,92,73,30.08,29.99,21,5,21,0.01
2013-5-19,70.5,62.7,59.6,64.9,61.0,59.0,99,94,80,30.05,29.95,18,5,20,0.12
2013-5-20,70.3,63.0,58.2,65.4,61.3,57.9,100,94,83,30.06,29.97,15,2,15,0.09
2013-5-21,80.5,67.1,55.2,67.6,60.9,55.2,100,83,49,30.02,29.86,21,2,23,0.57
2013-5-22,75.5,64.0,55.4,65.9,59.7,55.1,100,87,64,29.93,29.80,16,2,19,0.06
2013-5-23,73.9,62.7,55.5,61.2,57.6,53.9,98,85,52,29.86,29.76,19,3,19,0.33
2013-5-24,55.5,46.7,40.3,54.6,41.8,35.4,99,84,57,30.24,29.82,19,3,20,0.10
2013-5-25,58.7,45.4,33.6,38.5,34.1,26.0,96,68,32,30.36,30.24,18,2,18,0.00
2013-5-26,63.6,51.7,37.4,44.2,40.1,36.2,98,67,41,30.30,30.21,13,2,14,0.00
2013-5-27,72.0,57.8,42.8,57.7,48.3,37.1,93,71,55,30.26,30.10,15,3,15,0.00
2013-5-28,78.0,67.6,55.1,60.7,56.8,52.7,95,71,43,30.15,30.02,17,3,17,0.00
2013-5-29,81.0,68.6,55.6,61.4,58.1,54.7,98,72,46,30.15,30.05,13,2,14,0.00
2013-5-30,81.3,70.0,56.3,61.7,57.1,49.3,98,67,35,30.19,30.07,14,3,15,0.00
2013-5-31,79.2,68.9,55.2,63.1,58.8,54.0,97,72,47,30.12,29.99,13,2,15,0.00
2013-6-1,82.3,71.3,62.0,66.7,61.0,57.6,89,71,51,30.03,29.87,14,3,15,0.00
2013-6-2,70.5,65.9,61.2,64.1,61.4,58.2,98,86,75,29.89,29.81,16,3,16,0.77
2013-6-3,68.7,62.3,54.3,62.9,59.4,53.8,100,91,69,29.98,29.82,10,1,11,0.00
2013-6-4,73.7,62.2,53.0,59.6,55.4,52.7,100,80,53,30.06,29.97,10,1,10,0.00
2013-6-5,74.7,64.3,56.7,64.5,59.8,54.1,97,86,66,30.06,29.91,22,6,22,0.00
2013-6-6,68.4,63.0,59.7,65.3,61.3,57.2,99,94,87,29.95,29.74,17,5,18,0.04
2013-6-7,65.3,61.5,56.7,65.3,61.3,56.4,100,99,97,29.82,29.65,13,2,13,0.20
2013-6-8,73.8,63.2,55.0,60.3,55.8,50.5,100,80,50,30.07,29.82,10,1,11,0.02
2013-6-9,78.6,67.3,55.3,63.9,59.7,54.4,99,79,49,30.12,29.98,17,2,21,0.04
2013-6-10,71.3,64.6,59.7,67.0,62.4,58.4,100,93,75,29.98,29.80,18,4,18,0.48
2013-6-11,72.0,66.4,59.7,64.8,62.8,59.1,98,88,75,29.95,29.90,14,3,15,0.27
2013-6-12,81.8,70.7,62.7,72.1,66.4,60.8,99,87,66,29.96,29.81,18,2,18,0.08
2013-6-13,73.5,69.4,62.6,69.9,66.6,61.3,98,91,84,29.82,29.57,28,6,28,0.60
2013-6-14,68.8,61.5,52.9,57.5,55.1,52.1,97,80,61,30.05,29.83,13,2,13,0.01
2013-6-15,73.8,61.6,49.1,59.7,54.3,49.0,100,79,51,30.14,30.03,13,2,13,0.01
2013-6-16,74.3,66.3,54.2,65.0,61.1,53.2,98,84,67,30.06,29.96,17,2,18,0.46
2013-6-17,78.2,68.6,60.8,67.0,63.4,59.2,99,84,65,29.99,29.87,9,1,12,0.02
2013-6-18,68.0,62.2,57.0,63.8,61.0,56.7,100,96,82,29.93,29.80,10,1,12,1.43
2013-6-19,75.0,64.9,55.9,64.7,60.2,55.6,100,87,57,30.09,29.91,11,1,11,0.01
2013-6-20,74.5,67.4,57.8,64.8,62.8,57.2,99,86,67,30.18,30.09,7,1,11,0.00
2013-6-21,79.8,69.2,59.7,66.5,61.8,55.9,99,79,48,30.20,30.12,12,3,12,0.00
2013-6-22,79.4,68.8,58.3,64.1,59.7,55.0,96,74,54,30.20,30.07,14,2,14,0.00
2013-6-23,82.5,76.3,65.9,64.9,62.0,56.4,92,63,43,30.15,30.06,9,1,9,0.00
2013-6-24,82.0,70.9,61.1,68.8,63.9,60.0,98,80,55,30.14,30.01,13,1,14,0.00
2013-6-25,80.0,69.3,62.0,71.2,66.1,61.7,100,90,65,30.07,29.93,14,1,14,0.48
2013-6-26,77.8,70.0,64.1,71.0,66.7,62.8,99,90,73,29.96,29.82,13,2,13,0.04
2013-6-27,68.7,66.1,61.6,68.2,64.9,61.0,100,96,88,29.83,29.67,17,3,17,0.37
2013-6-28,77.6,70.6,65.9,68.3,64.9,59.6,100,83,59,29.72,29.53,20,4,20,0.00
2013-6-29,77.3,67.2,57.4,63.7,60.3,57.1,100,80,54,29.66,29.54,9,2,16,0.03
2013-6-30,78.6,67.8,56.6,66.4,61.2,56.3,100,81,54,29.77,29.66,11,2,17,0.00
2013-7-1,73.1,65.5,62.2,65.8,63.1,61.6,99,92,78,29.90,29.74,16,3,19,0.09
2013-7-2,73.6,66.9,62.9,68.8,64.8,61.5,99,93,80,30.06,29.88,15,4,15,0.37
2013-7-3,71.3,65.6,63.0,68.0,64.8,62.7,100,97,85,30.16,30.05,16,5,17,0.30
2013-7-4,76.8,69.2,63.5,70.7,66.4,63.2,100,91,76,30.19,30.09,18,5,20,0.21
2013-7-5,79.8,70.6,64.0,70.2,66.3,63.3,99,87,69,30.16,30.07,19,4,19,0.03
2013-7-6,80.3,70.9,62.7,69.0,65.1,61.8,99,83,59,30.15,30.04,19,4,21,0.00
2013-7-7,73.4,66.7,62.0,69.0,65.2,61.7,100,95,84,30.11,30.02,14,2,14,0.40
2013-7-8,78.8,68.9,62.1,67.8,64.7,61.8,100,88,64,30.15,30.07,11,2,11,0.01
2013-7-9,82.5,72.3,63.3,69.6,66.2,62.5,99,83,53,30.11,30.00,13,1,13,0.00
2013-7-10,81.4,70.2,64.2,73.8,68.2,63.4,100,94,69,30.03,29.87,16,1,16,1.25
2013-7-11,76.3,67.4,61.6,69.1,65.3,61.6,100,94,74,29.92,29.85,10,1,10,0.00
2013-7-12,71.8,63.8,60.0,66.8,62.0,58.7,100,94,74,30.03,29.86,15,1,15,0.13
2013-7-13,72.1,65.1,59.0,67.0,63.0,58.4,100,93,82,30.14,30.00,18,5,20,0.00
2013-7-14,77.1,69.6,65.3,68.6,66.2,64.7,99,90,71,30.25,30.12,25,6,25,0.03
2013-7-15,84.5,72.1,64.5,68.6,65.6,62.2,99,82,50,30.31,30.21,12,2,13,0.00
2013-7-16,84.8,73.1,61.1,71.4,66.5,60.9,100,82,53,30.29,30.19,9,1,10,0.00
2013-7-17,84.2,73.4,65.1,73.7,69.8,64.8,100,89,67,30.24,30.10,11,1,11,0.33
2013-7-18,85.3,74.2,67.4,74.2,70.5,67.3,100,89,61,30.15,30.02,11,1,11,0.00
2013-7-19,84.0,74.0,65.9,73.4,69.8,65.8,100,88,64,30.04,29.90,11,2,11,0.01
2013-7-20,82.7,73.0,65.0,71.3,67.8,64.4,98,85,62,29.93,29.83,16,2,16,0.00
2013-7-21,79.6,70.3,64.8,70.9,68.1,64.1,100,93,70,29.94,29.86,14,1,14,0.51
2013-7-22,77.0,69.6,65.0,72.2,67.8,65.0,100,94,81,29.91,29.74,11,1,11,0.44
2013-7-23,77.3,69.8,65.4,68.9,66.5,65.1,100,90,69,29.80,29.72,13,3,13,0.40
2013-7-24,74.7,66.2,59.9,68.4,63.3,58.5,100,91,68,29.88,29.71,10,2,15,0.19
2013-7-25,71.8,62.6,53.2,60.5,57.3,52.4,100,85,60,30.06,29.87,10,1,10,0.00
2013-7-26,79.6,63.9,49.3,64.4,57.7,49.3,100,83,52,30.08,29.99,13,1,13,0.01
2013-7-27,70.0,64.6,62.0,66.5,63.5,61.3,100,96,85,30.00,29.84,13,3,13,0.65
2013-7-28,72.6,65.1,60.5,65.0,61.6,58.5,100,89,67,29.95,29.85,17,2,17,0.02
2013-7-29,70.3,61.3,48.1,58.5,53.8,48.1,100,78,56,30.22,30.04,10,1,10,0.00
2013-7-30,76.3,60.6,48.5,60.7,54.8,48.4,100,84,50,30.24,30.14,8,1,9,0.01
2013-7-31,62.7,61.0,59.0,61.5,60.1,58.0,100,97,89,30.14,29.96,13,2,14,0.29
2013-8-1,73.8,65.8,61.3,68.2,64.0,60.6,100,94,78,29.96,29.88,11,1,13,0.05
2013-8-2,73.7,64.6,54.8,62.6,59.8,54.8,100,86,60,30.02,29.92,13,1,13,0.01
2013-8-3,76.5,66.4,57.4,65.6,62.0,57.1,100,87,64,30.00,29.92,14,1,17,0.02
2013-8-4,70.7,64.3,55.9,64.4,60.5,55.3,100,88,68,30.05,29.92,9,1,10,0.00
2013-8-5,75.0,62.2,51.2,62.7,57.4,51.2,100,86,61,30.08,29.97,9,1,9,0.01
2013-8-6,78.8,66.0,56.1,66.4,62.0,55.5,100,88,61,29.98,29.93,9,1,9,0.00
2013-8-7,74.5,67.7,62.7,70.2,66.4,62.4,100,96,84,29.98,29.93,12,3,12,1.43
2013-8-8,75.3,69.7,65.3,71.5,68.1,65.3,100,95,85,29.98,29.92,11,2,11,0.08
2013-8-9,79.0,72.0,67.5,72.0,68.8,66.8,99,90,75,29.99,29.91,19,3,19,0.02
2013-8-10,78.5,70.2,66.1,71.1,68.1,65.5,100,94,73,30.04,29.97,16,2,16,0.22
2013-8-11,76.9,69.5,66.8,71.1,68.1,66.6,100,96,78,30.07,29.98,13,2,13,0.50
2013-8-12,77.3,69.3,64.0,68.8,66.5,64.0,100,91,67,30.04,29.89,10,1,10,0.11
2013-8-13,71.1,65.7,61.7,67.6,64.6,61.1,100,96,84,29.90,29.80,17,2,17,1.00
2013-8-14,64.7,57.3,47.7,61.0,52.0,47.1,99,84,61,30.12,29.88,13,2,13,0.00
2013-8-15,68.7,55.7,43.1,58.2,50.9,43.1,100,86,63,30.17,30.08,16,3,18,0.01
2013-8-16,73.3,61.4,52.2,60.7,55.2,51.1,97,81,59,30.14,30.07,14,3,14,0.00
2013-8-17,66.3,58.9,53.3,59.7,56.5,53.0,100,92,75,30.19,30.13,17,5,20,0.02
2013-8-18,66.0,60.8,57.4,64.3,60.6,57.4,100,99,93,30.20,30.12,20,4,20,0.03
2013-8-19,70.5,64.7,59.2,67.7,63.8,59.1,100,97,85,30.15,30.05,8,1,8,0.15
2013-8-20,77.3,66.5,55.2,69.1,63.4,55.2,100,91,70,30.17,30.08,10,1,10,0.01
2013-8-21,73.9,66.3,62.2,69.0,65.3,61.9,100,97,82,30.16,30.04,10,1,10,0.11
2013-8-22,75.3,66.3,57.8,69.3,64.1,57.8,100,93,77,30.12,30.00,14,2,15,0.01
2013-8-23,75.1,67.2,59.9,68.2,64.9,59.6,100,93,74,30.08,29.96,12,1,12,0.11
2013-8-24,74.0,63.1,55.4,60.3,57.0,54.1,100,83,52,30.28,30.08,19,2,19,0.01
2013-8-25,73.8,62.7,53.2,60.3,55.9,52.4,99,80,53,30.37,30.25,12,2,12,0.00
2013-8-26,77.2,64.6,51.8,64.0,58.9,51.8,100,84,56,30.30,30.10,9,1,9,0.01
2013-8-27,72.8,66.9,64.1,68.6,65.9,63.1,100,97,85,30.10,29.96,8,1,8,0.00
2013-8-28,77.6,71.1,67.7,71.1,68.9,67.7,100,93,78,29.99,29.83,18,3,18,0.03
2013-8-29,80.5,71.9,66.7,70.8,68.3,66.1,99,90,67,29.96,29.84,11,2,11,0.00
2013-8-30,80.1,70.1,63.8,71.7,66.7,63.6,100,90,65,29.97,29.86,12,3,12,0.01
2013-8-31,79.7,68.3,62.2,71.7,66.0,62.2,100,93,75,29.89,29.79,16,1,16,0.01
2013-9-1,74.8,67.8,62.4,69.2,65.5,61.8,100,93,78,29.85,29.77,8,1,8,0.12
2013-9-2,77.3,69.7,64.2,70.5,67.2,64.2,100,92,74,29.85,29.77,14,2,14,0.01
2013-9-3,74.4,66.6,55.1,67.1,62.3,54.4,100,87,60,29.99,29.78,13,2,13,0.00
2013-9-4,74.5,61.4,48.8,62.7,56.3,48.8,100,85,52,30.12,29.98,10,1,10,0.01
2013-9-5,74.1,61.1,51.2,62.0,57.3,51.2,100,89,57,30.15,30.09,12,1,12,0.01
2013-9-6,75.2,62.6,52.5,62.6,54.9,38.7,100,80,29,30.17,30.07,9,1,9,0.00
2013-9-7,75.8,62.4,50.5,62.1,55.2,50.5,100,80,49,30.09,29.98,11,1,11,0.01
2013-9-8,77.0,65.6,54.1,67.0,61.5,53.3,99,87,67,30.01,29.92,7,1,7,0.00
2013-9-9,76.8,66.9,59.6,68.9,64.5,59.6,100,92,75,30.10,30.00,18,3,18,0.01
2013-9-10,82.1,71.2,62.4,69.6,65.8,62.1,100,84,60,30.19,30.09,12,2,12,0.00
2013-9-11,81.0,68.1,63.3,71.5,66.2,63.2,100,94,67,30.17,30.04,10,1,10,0.00
2013-9-12,78.1,67.4,61.8,69.9,65.7,61.5,100,95,70,30.05,29.81,15,2,15,0.77
2013-9-13,64.3,58.5,47.0,62.0,54.2,45.4,100,87,61,29.96,29.76,14,2,14,0.10
2013-9-14,63.7,52.1,43.9,50.1,46.4,43.4,99,83,53,30.14,29.96,8,1,8,0.00
2013-9-15,69.5,57.6,43.7,57.5,51.9,43.2,100,83,63,30.20,30.13,13,3,13,0.01
2013-9-16,64.5,52.9,49.1,59.8,42.3,-99.9,100,85,82,30.24,30.09,12,-85,12,0.02
2013-9-17,62.7,52.3,42.5,53.7,47.5,-99.9,100,87,66,30.33,30.23,20,-6,20,0.01
2013-9-18,66.5,56.0,48.0,59.3,53.4,46.9,98,91,73,30.25,30.13,13,4,13,0.00
2013-9-19,64.3,60.9,59.1,63.9,60.6,58.4,100,99,95,30.15,30.03,7,1,7,0.03
2013-9-20,74.0,66.3,63.0,68.2,64.6,62.9,100,95,77,30.04,29.86,14,3,14,0.02
2013-9-21,63.7,60.1,54.9,63.2,59.9,54.9,100,99,94,29.87,29.68,15,3,15,0.64
2013-9-22,63.9,55.4,49.2,54.9,52.1,48.3,100,90,65,29.96,29.76,14,1,14,0.01
2013-9-23,65.5,52.5,39.4,54.8,48.0,39.3,100,87,55,30.06,29.95,12,1,12,0.01
2013-9-24,71.5,56.4,44.5,59.5,52.4,44.2,100,88,58,30.08,29.92,11,1,11,0.01
2013-9-25,61.0,56.9,52.6,59.5,56.4,52.3,100,98,89,29.94,29.85,12,2,12,0.05
2013-9-26,70.1,59.7,52.6,58.2,55.6,50.4,100,88,58,30.04,29.88,9,1,9,0.00
2013-9-27,71.7,57.4,46.9,56.5,51.8,46.6,100,84,53,30.16,30.04,9,1,9,0.00
2013-9-28,68.0,57.0,50.5,56.4,52.0,49.3,99,85,62,30.22,30.13,15,4,15,0.01
2013-9-29,67.8,55.9,47.0,57.4,52.0,46.5,99,88,65,30.15,30.02,12,3,12,0.00
2013-9-30,67.6,56.8,53.2,58.6,54.8,52.1,100,94,65,30.06,29.98,7,1,7,0.06
2013-10-1,69.3,58.1,49.6,60.2,54.6,49.6,100,89,63,30.14,30.03,9,1,9,0.01
2013-10-2,73.8,60.2,49.8,62.0,56.3,49.8,100,89,62,30.16,30.07,11,1,11,0.01
2013-10-3,73.6,61.8,54.1,63.4,58.1,54.1,100,89,64,30.13,30.04,5,0,7,0.00
2013-10-4,76.5,64.4,55.8,64.9,60.6,55.8,100,89,63,30.13,30.05,9,1,9,0.01
2013-10-5,78.5,64.8,54.2,65.8,60.4,54.2,100,87,59,30.12,30.00,9,0,9,0.01
2013-10-6,76.5,66.8,59.3,63.6,60.0,58.2,97,80,55,30.00,29.79,18,5,21,0.01
2013-10-7,65.0,54.9,44.0,60.7,50.6,41.9,99,86,66,30.08,29.71,15,3,15,0.68
2013-10-8,61.1,48.7,38.2,47.5,42.9,37.3,99,82,57,30.25,30.08,18,2,18,0.01
2013-10-9,63.9,50.6,42.8,44.7,41.2,37.1,92,72,43,30.28,30.17,17,4,17,0.00
2013-10-10,67.3,54.5,45.7,57.5,49.3,38.1,98,83,65,30.18,30.03,12,1,12,0.05
2013-10-11,63.7,55.8,52.4,56.9,53.6,50.1,100,93,77,30.03,29.94,12,1,12,0.04
2013-10-12,64.8,57.3,51.7,60.0,56.3,51.7,100,97,82,30.10,29.99,8,0,8,0.04
2013-10-13,65.2,59.3,56.5,59.9,58.0,56.3,100,96,81,30.22,30.10,8,1,8,0.02
2013-10-14,67.3,59.4,54.9,59.3,56.8,54.9,100,92,69,30.25,30.13,11,3,11,0.00
2013-10-15,65.7,57.0,50.4,55.2,51.6,49.6,99,83,58,30.17,30.02,15,4,15,0.00
2013-10-16,64.0,57.4,50.1,56.9,52.9,47.8,94,85,75,30.03,29.92,9,3,11,0.00
2013-10-17,62.2,56.0,45.2,60.8,55.3,44.8,100,97,91,29.93,29.74,18,2,18,0.25
2013-10-18,57.2,47.4,38.0,45.0,42.6,37.5,99,85,59,30.05,29.92,8,1,8,0.00
2013-10-19,57.1,47.4,38.3,50.6,44.4,37.8,99,90,64,30.00,29.83,20,3,20,0.01
2013-10-20,54.9,41.9,32.9,38.4,34.4,29.7,98,78,41,30.13,29.97,8,1,8,0.01
2013-10-21,63.5,48.7,33.2,44.1,36.6,31.0,97,66,36,30.15,29.96,15,2,15,0.00
2013-10-22,51.8,46.9,42.7,43.5,42.1,40.6,99,85,66,29.97,29.82,12,2,12,0.01
2013-10-23,43.2,38.1,31.9,42.5,37.2,31.1,100,97,87,30.03,29.71,19,3,19,0.30
2013-10-24,36.7,32.3,28.4,32.4,30.5,27.9,99,93,76,30.24,30.01,18,2,18,0.01
2013-10-25,34.7,30.6,25.0,31.1,28.5,24.0,98,92,77,30.43,30.23,12,1,12,0.02
2013-10-26,46.1,26.0,20.7,30.2,10.1,-99.9,98,75,46,30.40,30.17,19,-116,19,0.01
2013-10-27,46.0,38.2,37.2,36.4,35.6,33.8,93,90,69,30.13,30.08,1,0,1,0.00
2013-10-28,52.2,46.4,35.7,50.0,44.9,34.1,99,95,81,30.28,30.13,8,1,8,0.22
2013-10-29,59.2,53.0,49.5,53.7,49.9,48.5,100,90,70,30.34,30.23,9,1,9,0.07
2013-10-30,58.2,54.6,51.3,57.1,53.7,49.3,100,97,87,30.24,30.13,17,2,17,0.55
2013-10-31,63.4,58.1,54.2,56.6,54.0,51.6,100,87,70,30.14,29.61,32,4,32,0.01
2013-11-1,64.1,57.9,48.9,58.1,50.9,42.9,97,78,56,29.71,29.55,26,5,26,0.39
2013-11-2,52.7,46.2,38.9,43.2,38.5,31.1,93,76,45,29.99,29.68,21,3,21,0.01
2013-11-3,44.0,38.3,29.8,37.3,33.7,27.6,96,84,65,30.39,29.99,12,1,12,0.01
2013-11-4,48.7,39.5,32.6,33.5,29.9,26.4,92,70,52,30.53,30.39,23,6,23,0.00
2013-11-5,47.2,40.1,33.5,43.3,28.6,-99.9,95,69,43,30.55,30.43,17,-21,17,0.00
2013-11-6,64.1,53.0,44.5,51.6,47.8,42.9,99,84,62,30.43,30.03,22,7,22,0.00
2013-11-7,54.7,42.8,30.6,51.4,39.8,26.3,98,89,79,30.16,29.92,17,3,17,0.24
2013-11-8,40.4,32.6,26.0,29.0,25.0,21.9,90,75,50,30.36,30.16,13,2,16,0.00
2013-11-9,54.9,40.7,25.5,28.6,23.7,16.1,92,56,23,30.36,30.17,23,3,23,0.00
2013-11-10,52.4,41.4,30.0,36.2,28.7,23.5,77,62,37,30.32,30.13,23,4,23,0.00
2013-11-11,59.6,41.7,26.3,31.1,16.8,-99.9,92,48,12,30.34,30.11,15,-43,15,0.00
2013-11-12,49.7,30.1,20.4,36.7,23.8,18.9,96,82,30,30.50,30.06,21,4,21,0.00
2013-11-13,31.7,21.6,16.6,20.0,5.6,-99.9,95,69,57,30.64,30.50,16,-98,16,0.00
2013-11-14,50.2,33.1,22.4,23.0,6.7,-99.9,78,43,27,30.52,30.32,15,-78,15,0.02
2013-11-15,55.4,42.8,31.0,43.1,24.7,-99.9,98,56,22,30.33,30.19,21,-26,21,0.25
2013-11-16,53.9,47.3,42.9,51.5,46.6,42.6,100,97,89,30.24,30.14,18,5,18,0.01
2013-11-17,63.7,55.2,48.0,58.2,52.5,47.5,98,91,72,30.15,29.72,34,7,34,0.23
2013-11-18,56.4,46.8,37.3,54.6,35.2,26.5,95,66,41,30.03,29.79,24,4,24,0.11
2013-11-19,37.2,28.1,25.9,28.3,12.4,-99.9,90,70,67,30.35,30.03,15,-94,15,0.00
2013-11-20,41.9,33.1,26.2,27.2,24.3,22.9,88,71,48,30.46,30.33,23,8,23,0.00
2013-11-21,51.9,41.3,31.0,45.8,36.3,25.1,91,82,69,30.51,30.36,19,7,19,0.00
2013-11-22,58.3,51.7,43.4,54.2,50.2,43.1,99,95,85,30.36,30.09,18,3,18,0.27
2013-11-23,43.3,32.8,19.8,42.9,29.8,12.9,100,89,68,30.31,30.13,20,4,20,0.02
2013-11-24,20.6,15.9,10.3,16.5,6.5,3.1,88,67,47,30.59,30.30,20,4,20,0.00
2013-11-25,33.4,25.6,10.2,27.2,20.4,5.9,89,80,73,30.61,30.39,11,1,11,0.00
2013-11-26,40.5,36.9,30.2,40.5,36.6,29.4,100,99,97,30.22,29.73,17,5,17,1.73
2013-11-27,32.1,22.0,16.0,31.8,21.0,13.7,99,96,91,30.25,29.73,28,5,28,0.00
2013-11-28,32.5,22.7,15.2,20.5,15.5,8.2,94,76,41,30.54,30.25,11,2,11,0.00
2013-11-29,35.7,27.0,20.0,24.3,20.0,15.9,88,75,59,30.66,30.52,12,1,12,0.01
2013-11-30,36.7,29.0,22.9,26.1,22.2,18.3,83,76,64,30.62,30.36,19,8,19,0.00
2013-12-1,45.7,39.2,28.6,35.0,28.5,21.9,78,66,48,30.36,30.02,16,2,16,0.00
2013-12-2,47.2,42.1,37.3,37.6,35.4,33.1,87,77,68,30.03,29.82,9,1,9,0.00
2013-12-3,51.5,44.2,37.1,43.6,39.7,34.6,92,84,72,29.93,29.83,11,2,11,0.00
2013-12-4,59.2,49.6,40.9,50.5,46.5,40.4,99,90,72,30.03,29.91,14,4,14,0.00
2013-12-5,64.2,56.1,47.3,56.9,52.8,46.2,97,89,76,30.02,29.89,19,3,19,0.19
2013-12-6,57.5,39.5,31.3,56.9,39.3,31.1,100,99,93,30.17,29.88,18,2,18,1.47
2013-12-7,31.5,27.1,24.2,31.4,26.7,23.5,100,98,97,30.53,30.15,11,2,11,0.00
2013-12-8,30.9,27.8,25.6,30.9,27.5,25.1,100,99,98,30.50,30.20,22,6,22,0.00
2013-12-10,24.7,22.4,20.4,23.4,20.6,18.6,96,93,86,30.34,30.14,10,4,19,0.00
2013-12-11,35.5,25.7,14.2,23.1,18.7,13.0,97,76,50,30.48,30.34,19,3,19,0.01
2013-12-12,24.9,20.5,15.7,19.7,12.4,7.9,87,71,50,30.48,30.38,15,3,15,0.00
2013-12-13,35.7,27.0,18.3,21.9,12.8,8.7,70,56,39,30.43,30.32,17,2,17,0.00
2013-12-14,41.2,31.2,28.8,41.2,30.2,19.4,100,96,59,30.34,29.76,20,5,20,0.00
2013-12-15,41.5,28.6,24.7,41.5,27.9,23.1,100,97,94,30.10,29.76,22,4,22,0.04
2013-12-16,37.1,29.8,23.8,31.0,26.7,22.2,98,89,76,30.21,30.07,20,3,20,0.05
2013-12-17,38.1,34.3,25.9,33.6,31.1,24.6,98,88,80,30.13,29.94,21,5,21,0.03
2013-12-18,33.6,27.0,20.2,24.6,20.0,12.4,95,76,50,30.30,30.11,18,3,18,0.00
2013-12-19,54.3,45.8,30.3,26.4,23.0,12.2,59,41,32,30.31,30.12,20,4,20,0.06
2013-12-20,57.9,51.6,41.6,47.7,33.9,21.6,79,53,30,30.13,30.01,25,4,25,0.00
2013-12-21,63.3,58.3,51.9,57.2,51.2,44.6,85,77,67,30.02,29.80,24,6,24,0.01
2013-12-22,64.3,55.0,50.6,57.3,52.5,49.3,98,92,77,29.98,29.76,21,4,21,0.69
2013-12-23,52.1,38.4,25.3,51.6,37.4,22.5,99,96,89,30.25,29.91,17,3,17,0.44
2013-12-24,25.7,20.2,8.5,23.2,16.6,6.2,94,86,71,30.51,30.24,17,3,17,0.00
2013-12-25,34.6,20.7,6.7,18.5,11.4,5.1,93,70,44,30.55,30.36,15,3,15,0.00
2013-12-26,35.2,30.5,23.1,24.9,19.5,13.4,75,64,48,30.42,30.30,20,3,20,0.00
2013-12-27,42.2,31.4,19.4,22.5,18.5,15.7,88,61,37,30.51,30.41,13,1,13,0.00
2013-12-28,48.9,40.3,31.8,32.8,21.2,16.5,87,47,32,30.43,30.09,15,2,15,0.11
2013-12-29,42.2,37.4,34.8,42.2,36.8,31.9,100,98,87,30.10,29.72,29,6,29,1.37
2013-12-30,34.9,29.6,26.5,34.6,28.7,23.7,99,96,89,30.18,29.96,16,2,16,0.02
2013-12-31,30.6,26.1,22.6,25.0,21.0,18.7,95,82,62,30.39,30.16,28,4,28,0.00
2014-1-1,45.5,33.7,25.0,27.3,22.4,17.8,88,64,39,30.40,30.10,16,2,16,0.00
2014-1-2,40.1,31.7,11.8,38.7,27.9,9.7,98,86,64,30.10,29.64,19,3,21,0.26